Weather History for KIRS - January, 2014

Change the Weather History Date:

Monday, January 13, 2014

  Actual Average (KHAI) Record (KHAI)
Temperature  
Mean Temperature 38 °F -  
Max Temperature 42 °F 30 °F 61 °F (1950)
Min Temperature 35 °F 15 °F -11 °F (1977)
Degree Days  
Heating Degree Days 26    
Moisture  
Dew Point 32 °F    
Average Humidity 78    
Maximum Humidity 93    
Minimum Humidity 70    
Precipitation  
Precipitation 0.00 in - - ()
Sea Level Pressure  
Sea Level Pressure 29.62 in    
Wind  
Wind Speed 12 mph (SW)    
Max Wind Speed 16 mph    
Max Gust Speed 22 mph    
Visibility 10 miles    
Events      
Averages and records for this station are not official NWS values.
T = Trace of Precipitation, MM = Missing Value Source: NWS Daily Summary

Daily Weather History Graph

Daily Weather History Graph

Search for Another Location

Airport or City:

Trip Planner

Search our weather history database for the weather conditions in past years. The results will help you decide how hot, cold, wet, or windy it might be!

Date:

Astronomy

Jan. 13, 2014 Rise Set
Actual Time 8:07 AM EST 5:33 PM EST
Civil Twilight 7:36 AM EST 6:04 PM EST
Nautical Twilight 7:02 AM EST 6:39 PM EST
Astronomical Twilight 6:28 AM EST 7:12 PM EST
Moon 3:48 PM EST (1/13) 5:55 AM EST (1/13)
Length of Visible Light 10h 27m
Length of Day
9h 26m
Waxing Gibbous, 95% of the Moon is Illuminated
Jan 13
Waxing Gibbous
Jan 15
Full
Jan 24
Last Quarter
Jan 30
New
Feb 6
First Quarter

Hourly Weather History & Observations

Time (EST) Temp. Windchill Dew Point Humidity Pressure Visibility Wind Dir Wind Speed Gust Speed Precip Events Conditions
12:15 AM 37.4 °F 28.5 °F 30.2 °F 75% 29.70 in 10.0 mi South 15.0 mph 18.4 mph N/A   Clear
12:35 AM 37.4 °F 29.8 °F 30.2 °F 75% 29.69 in 10.0 mi SSW 11.5 mph - N/A   Clear
12:54 AM 37.4 °F 29.3 °F 30.2 °F 75% 29.69 in 10.0 mi SSW 12.7 mph - N/A   Clear
1:15 AM 37.4 °F 28.5 °F 30.2 °F 75% 29.68 in 10.0 mi SSW 15.0 mph - N/A   Clear
1:35 AM 37.4 °F 29.3 °F 30.2 °F 75% 29.69 in 10.0 mi SSW 12.7 mph - N/A   Clear
1:54 AM 37.4 °F 30.3 °F 30.2 °F 75% 29.68 in 10.0 mi SSW 10.4 mph - N/A   Clear
2:15 AM 39.2 °F 30.8 °F 30.2 °F 70% 29.67 in 10.0 mi SSW 15.0 mph - N/A   Clear
2:35 AM 39.2 °F 30.8 °F 30.2 °F 70% 29.67 in 10.0 mi SSW 15.0 mph - N/A   Clear
2:54 AM 39.2 °F 31.2 °F 30.2 °F 70% 29.67 in 10.0 mi SSW 13.8 mph - N/A   Clear
3:15 AM 39.2 °F 31.6 °F 30.2 °F 70% 29.67 in 10.0 mi SSW 12.7 mph - N/A   Clear
3:34 AM 39.2 °F 31.6 °F 30.2 °F 70% 29.66 in 10.0 mi SSW 12.7 mph 18.4 mph N/A   Clear
3:55 AM 39.2 °F 31.6 °F 30.2 °F 70% 29.65 in 10.0 mi SSW 12.7 mph - N/A   Clear
4:15 AM 39.2 °F 32.0 °F 30.2 °F 70% 29.65 in 10.0 mi SSW 11.5 mph - N/A   Clear
4:35 AM 39.2 °F 31.6 °F 30.2 °F 70% 29.64 in 10.0 mi SSW 12.7 mph - N/A   Clear
4:55 AM 37.4 °F 29.8 °F 30.2 °F 75% 29.64 in 10.0 mi SSW 11.5 mph - N/A   Clear
5:14 AM 37.4 °F 29.3 °F 30.2 °F 75% 29.63 in 10.0 mi SSW 12.7 mph - N/A   Clear
5:35 AM 37.4 °F 29.3 °F 30.2 °F 75% 29.63 in 10.0 mi SSW 12.7 mph 17.3 mph N/A   Clear
5:55 AM 37.4 °F 29.3 °F 30.2 °F 75% 29.63 in 10.0 mi SSW 12.7 mph 16.1 mph N/A   Clear
6:14 AM 37.4 °F 29.3 °F 30.2 °F 75% 29.62 in 10.0 mi SSW 12.7 mph - N/A   Clear
6:35 AM 37.4 °F 29.8 °F 30.2 °F 75% 29.62 in 10.0 mi South 11.5 mph - N/A   Clear
6:54 AM 37.4 °F 29.3 °F 30.2 °F 75% 29.62 in 10.0 mi South 12.7 mph - N/A   Clear
7:15 AM 37.4 °F 29.3 °F 30.2 °F 75% 29.61 in 10.0 mi South 12.7 mph - N/A   Clear
7:35 AM 39.2 °F 31.2 °F 30.2 °F 70% 29.60 in 10.0 mi SSW 13.8 mph - N/A   Clear
7:54 AM 39.2 °F 30.5 °F 30.2 °F 70% 29.60 in 10.0 mi South 16.1 mph - N/A   Clear
8:15 AM 39.2 °F 30.8 °F 32.0 °F 75% 29.59 in 10.0 mi South 15.0 mph 19.6 mph N/A   Clear
8:35 AM 39.2 °F 31.6 °F 32.0 °F 75% 29.59 in 10.0 mi SSW 12.7 mph 20.7 mph N/A   Clear
8:54 AM 39.2 °F 30.8 °F 32.0 °F 75% 29.60 in 10.0 mi SSW 15.0 mph 19.6 mph N/A   Clear
9:15 AM 39.2 °F 32.0 °F 32.0 °F 75% 29.59 in 10.0 mi SSW 11.5 mph - N/A   Clear
9:35 AM 39.2 °F 31.6 °F 32.0 °F 75% 29.59 in 10.0 mi SSW 12.7 mph - N/A   Clear
9:54 AM 39.2 °F 32.0 °F 32.0 °F 75% 29.58 in 10.0 mi SSW 11.5 mph 16.1 mph N/A   Clear
10:15 AM 39.2 °F 32.0 °F 33.8 °F 81% 29.60 in 10.0 mi SSW 11.5 mph - N/A   Clear
10:35 AM 39.2 °F 32.5 °F 33.8 °F 81% 29.60 in 10.0 mi SSW 10.4 mph - N/A   Clear
10:54 AM 41.0 °F 34.3 °F 33.8 °F 76% 29.60 in 10.0 mi SSW 11.5 mph - N/A   Scattered Clouds
11:15 AM 41.0 °F 34.3 °F 33.8 °F 76% 29.59 in 10.0 mi SSW 11.5 mph - N/A   Scattered Clouds
11:34 AM 41.0 °F 34.3 °F 33.8 °F 76% 29.59 in 10.0 mi SSW 11.5 mph - N/A   Clear
11:55 AM 42.8 °F 35.8 °F 33.8 °F 70% 29.58 in 10.0 mi SSW 13.8 mph - N/A   Scattered Clouds
12:15 PM 41.0 °F 33.1 °F 33.8 °F 76% 29.57 in 10.0 mi SSW 15.0 mph - N/A   Overcast
12:34 PM 42.8 °F 35.4 °F 33.8 °F 70% 29.56 in 10.0 mi SSW 15.0 mph 21.9 mph N/A   Overcast
12:55 PM 41.0 °F 33.5 °F 33.8 °F 76% 29.56 in 10.0 mi SW 13.8 mph - N/A   Overcast
1:14 PM 41.0 °F 34.3 °F 35.6 °F 81% 29.55 in 10.0 mi SW 11.5 mph - N/A   Overcast
1:35 PM 41.0 °F 33.9 °F 35.6 °F 81% 29.55 in 10.0 mi SW 12.7 mph - N/A   Overcast
1:55 PM 42.8 °F 36.6 °F 35.6 °F 76% 29.55 in 10.0 mi SW 11.5 mph - N/A   Overcast
2:14 PM 42.8 °F 36.6 °F 35.6 °F 76% 29.54 in 10.0 mi SW 11.5 mph - N/A   Mostly Cloudy
2:35 PM 42.8 °F 36.2 °F 35.6 °F 76% 29.55 in 10.0 mi SW 12.7 mph - N/A   Clear
2:55 PM 42.8 °F 36.2 °F 35.6 °F 76% 29.56 in 10.0 mi SW 12.7 mph 17.3 mph N/A   Clear
3:14 PM 42.8 °F 37.0 °F 35.6 °F 76% 29.56 in 10.0 mi SW 10.4 mph - N/A   Scattered Clouds
3:35 PM 42.8 °F 36.6 °F 35.6 °F 76% 29.56 in 10.0 mi SW 11.5 mph - N/A   Clear
3:55 PM 42.8 °F 37.5 °F 35.6 °F 76% 29.57 in 10.0 mi SW 9.2 mph - N/A   Clear
4:14 PM 42.8 °F 36.6 °F 35.6 °F 76% 29.57 in 10.0 mi SW 11.5 mph - N/A   Clear
4:35 PM 42.8 °F 37.5 °F 35.6 °F 76% 29.58 in 10.0 mi SW 9.2 mph - N/A   Clear
4:55 PM 41.0 °F 35.2 °F 35.6 °F 81% 29.59 in 10.0 mi WSW 9.2 mph - N/A   Scattered Clouds
5:14 PM 41.0 °F 36.4 °F 35.6 °F 81% 29.60 in 10.0 mi SW 6.9 mph - N/A   Scattered Clouds
5:35 PM 37.4 °F 32.8 °F 33.8 °F 87% 29.60 in 10.0 mi SSW 5.8 mph - N/A   Scattered Clouds
5:55 PM 37.4 °F 32.8 °F 35.6 °F 93% 29.61 in 10.0 mi SW 5.8 mph - N/A   Clear
6:14 PM 37.4 °F 32.1 °F 33.8 °F 87% 29.62 in 10.0 mi SW 6.9 mph - N/A   Clear
6:35 PM 37.4 °F 31.4 °F 35.6 °F 93% 29.63 in 10.0 mi SW 8.1 mph - N/A   Clear
6:55 PM 37.4 °F 30.8 °F 33.8 °F 87% 29.63 in 10.0 mi SW 9.2 mph - N/A   Clear
7:14 PM 37.4 °F 32.1 °F 35.6 °F 93% 29.64 in 10.0 mi WSW 6.9 mph - N/A   Clear
7:35 PM 37.4 °F 32.1 °F 33.8 °F 87% 29.65 in 10.0 mi WSW 6.9 mph - N/A   Clear
7:54 PM 39.2 °F 33.0 °F 33.8 °F 81% 29.66 in 10.0 mi WSW 9.2 mph - N/A   Clear
8:15 PM 37.4 °F 30.8 °F 33.8 °F 87% 29.66 in 10.0 mi West 9.2 mph - N/A   Clear
8:35 PM 37.4 °F 30.8 °F 32.0 °F 81% 29.67 in 10.0 mi West 9.2 mph 16.1 mph N/A   Clear
8:54 PM 37.4 °F 32.1 °F 32.0 °F 81% 29.67 in 10.0 mi West 6.9 mph - N/A   Clear
9:15 PM 35.6 °F 28.6 °F 30.2 °F 81% 29.68 in 10.0 mi West 9.2 mph - N/A   Clear
9:35 PM 35.6 °F 29.9 °F 30.2 °F 81% 29.68 in 10.0 mi West 6.9 mph - N/A   Scattered Clouds
9:54 PM 35.6 °F 29.2 °F 30.2 °F 81% 29.68 in 10.0 mi West 8.1 mph - N/A   Mostly Cloudy
10:15 PM 35.6 °F 29.2 °F 30.2 °F 81% 29.68 in 10.0 mi West 8.1 mph - N/A   Overcast
10:35 PM 35.6 °F 29.2 °F 30.2 °F 81% 29.69 in 10.0 mi West 8.1 mph - N/A   Overcast
10:54 PM 35.6 °F 29.9 °F 30.2 °F 81% 29.70 in 10.0 mi West 6.9 mph - N/A   Overcast
11:15 PM 35.6 °F 28.0 °F 32.0 °F 87% 29.70 in 10.0 mi West 10.4 mph - N/A   Overcast
11:35 PM 35.6 °F 28.0 °F 32.0 °F 87% 29.70 in 10.0 mi West 10.4 mph 16.1 mph N/A   Overcast
11:54 PM 35.6 °F 28.6 °F 30.2 °F 81% 29.70 in 10.0 mi West 9.2 mph - N/A   Overcast